Bei uns kannst du mitfliegen! Besuche uns und lerne uns kennen - als Gast, Pilot oder jemand der es werden möchte.

Kölner Klub für Luftsport e.V.

KKFL.de

Ausbildung – Fliegen – Abenteuer

Ausbildung im KKFL

Ausbildung

Fliegen lernen im Verein
Der KKFL.de bietet eine effiziente, schnelle Ausbildung zur Pivatpilotenlizenz (PPL) in verschiedenen Ausprägungen an. Nach der Ausbildung können diverse Ergänzungen vom Verstellpropeller bis hin zu Nachtflug oder das Fliegen nach Instrumentenflugregeln (IFR) angeschlossen werden.
Fliegen im Verein ist günstig!

Unsere Flotte

Cessna 172 S

D-EOCD
Die Cessna ist als schnelle Schul- und Reisemaschine gleichsam beliebt. Unsere vereins-eigene Flotte sorgt für Abwechlung bei den Piloten und unsere Werft senkt Kosten. In der Ausbildung dürfen Schüler über 'ihre Maschine' mit entscheiden.

Cessna 172 R

D-EFPB

Piper PA 28 II Archer

D-EFPA

Aquila A210

D-EAQJ

Piper PA 28-181

D-ELFF

Flugplatz Hangelar


[Quelle: ADDS]
METAR
EDDK 250720Z 31009KT 9999 BKN018 14/11 Q1033 NOSIG =
EDDK 250500Z 2506/2612 31005KT 9999 BKN030 BECMG 2507/2510 32012KT BECMG 2518/2520 36006KT BECMG 2521/2524 VRB03KT BECMG 2609/2612 34005KT
TAF
EDDK 250500Z 2506/2612 31005KT 9999 BKN030 BECMG 2507/2510 32012KT BECMG 2518/2520 36006KT BECMG 2521/2524 VRB03KT BECMG 2609/2612 34005KT =
SR / SS: 03:29 / 19:27 UTC (EDKB 2020-05-25)

Links und Partner

Zu unserem Heimatflugplatz Hangelar
Zu unserer Online-Verwaltung
Zum Pilotenportal der DFS
Zum Deutsche Wetterdienst - Flugwetter

Du willst fliegen?

Während unserer Bürozeiten und auch dazwischen sind wir für deine Fragen da.
Bitte kontaktiere den Verein unter den angegebenen Adressen.
© 2020 - Kölner Klub für Luftsport e.V.
Bonn / Hangelar - EDKB - Germany
Cookies erleichtern die Bereitstellung unserer Dienste. Mit der Nutzung unserer Dienste erklären Sie sich damit einverstanden, dass wir Cookies verwenden.